Home > Weather > Thule Air Base > Past weeks

Flag for Greenland Past Weather in Thule Air Base, Greenland — Yesterday and Last 2 Weeks

Now
43 °F

Overcast.


Feels Like: 34 °F
Forecast: N/A
Wind: 22 mph from South

Location: Thule A. B.

Current Time: Jul 1, 2016 at 7:32:02 PM

Latest Report: Jul 1, 2016 at 6:58 PM


Visibility: N/A

Pressure: 29.84 "Hg

Humidity: 66%

Dew Point: 32 °F

Location of Thule Air BaseLocation

Past Weather in Thule Air Base — Graph

°F

Thule Air Base Temperature Yesterday

Maximum temperature yesterday: 45 °F (at 3:58 AM)
Minimum temperature yesterday: 41 °F (at 2:58 AM)
Average temperature yesterday: 44 °F

High & Low Weather Summary for the Past Weeks

 TemperatureHumidityPressure
High52 °F (Jun 18, 10:58 AM)93% (Jun 23, 6:59 PM)29.97 "Hg (Jun 23, 6:59 PM)
Low30 °F (Jun 17, 2:58 AM)32% (Jun 18, 11:01 AM)29.44 "Hg (Jun 24, 12:58 AM)
Average38 °F79%29.66 "Hg
* Reported Jun 16 5:03 PM — Jul 1 5:58 PM, Thule Air Base, Weather by CustomWeather, © 2016

Note: Actual official high and low records may vary slightly from our data, if they occured in-between our weather recording intervals... More about our weather records

Advertising

Thule Air Base Weather History for the Previous 24 Hours

Scroll right to see more
 ConditionsComfort  
Time TempWeatherWind HumidityBarometerVisibility
5:58 PM
Fri, Jul 1
43 °FOvercast.25 mph71%29.83 "HgN/A
4:58 PM45 °FOvercast.28 mph66%29.81 "HgN/A
3:58 PM46 °FOvercast.26 mph62%29.79 "HgN/A
2:58 PM46 °FScattered clouds.25 mph62%29.78 "HgN/A
1:58 PM46 °FSunny.28 mph62%29.75 "HgN/A
12:58 PM46 °FSunny.35 mph57%29.73 "HgN/A
11:58 AM45 °FSunny.32 mph66%29.71 "HgN/A
10:58 AM41 °FOvercast.39 mph76%29.68 "HgN/A
9:58 AM41 °FOvercast.40 mph76%29.66 "HgN/A
8:58 AM41 °FLight rain. Mostly cloudy.43 mph70%29.64 "HgN/A
8:01 AM41 °FLight rain. Scattered clouds.40 mph70%29.71 "HgN/A
6:58 AM41 °FOvercast.38 mph66%29.67 "HgN/A
5:58 AM41 °FOvercast.45 mph66%29.66 "HgN/A
4:58 AM41 °FMore clouds than sun.30 mph66%29.72 "HgN/A
3:58 AM41 °FOvercast.33 mph70%29.74 "HgN/A
2:58 AM41 °FOvercast.32 mph70%29.77 "HgN/A
1:58 AM43 °FOvercast.35 mph66%29.79 "HgN/A
12:58 AM43 °FOvercast.26 mph66%29.80 "HgN/A
11:58 PM
Thu, Jun 30
43 °FOvercast.37 mph71%29.79 "HgN/A
10:58 PM43 °FOvercast.40 mph71%29.77 "HgN/A
9:58 PM45 °FOvercast.39 mph66%29.79 "HgN/A
8:58 PM45 °FPartly sunny.31 mph66%29.80 "HgN/A
7:58 PM45 °FOvercast.23 mph66%29.83 "HgN/A
Weather by CustomWeather, © 2016

See weather overviewHow to use our weather pages